STARLINK-2746 (48676 NORAD) Tracking and Keplerian Element Data

This shows tracking and keplerian element data for the satellite.

Feedback or suggestion? Click here.




ElementValue
Catalog48676
NameSTARLINK-2746
Epoch Orbit364
Epoch Day214.91667824
Epoch Year2021
RAAN92.4785
Inclination53.0456
Eccentricity0.000134
Argument of Perigee65.0536
Mean Anonmoly335.4105
Mean Motion15.12880556
Decay Rate-0.00925611
L11 48676U 21044AQ 21214.91667824 -.00925611 00000-0 -56218-1 0 9994
L22 48676 53.0456 92.4785 0001340 65.0536 335.4105 15.12880556 3649

Live tracking and technical data element details for STARLINK-2746 (NORAD 48676). STARLINK-2746 can be tracked NOW for your location showing map with azimuth and elevation plus other details from your city location.

Track the satellite on the map from your city or location and see movement details for azimuth, elevation, latitude, longitude, range, height, and movement on the map or in text.







IsCatalogInMostPopularTable: catalog: 48676, numindb: 19
Update: records affected: 1



GetName: 48676 STARLINK-2746

Hit Count: updated at: Wed, 04 Aug 2021 00:42:29 GMT